Time,TemperatureF,DewpointF,PressureIn,WindDirection,WindDirectionDegrees,WindSpeedMPH,WindSpeedGustMPH,Humidity,HourlyPrecipIn,Conditions,Clouds,dailyrainin,SolarRadiationWatts/m^2,SoftwareType,DateUTC
2013-12-04 00:01:00,60.6,58.3,29.95,SSE,167,0.0,4.0,92,0.00,,,0.00,0.0,meteohub,2013-12-04 05:01:00,
2013-12-04 00:02:00,60.6,58.3,29.95,SSE,167,0.0,4.0,92,0.00,,,0.00,0.0,meteohub,2013-12-04 05:02:00,
2013-12-04 00:03:00,60.6,58.3,29.95,SSE,167,0.0,4.0,92,0.00,,,0.00,0.0,meteohub,2013-12-04 05:03:00,
2013-12-04 00:08:00,60.4,58.1,29.95,SSE,167,0.0,2.0,92,0.00,,,0.00,0.0,meteohub,2013-12-04 05:08:00,
2013-12-04 00:13:00,60.4,58.1,29.95,SSE,167,0.0,1.0,92,0.00,,,0.00,0.0,meteohub,2013-12-04 05:13:00,
2013-12-04 00:18:00,60.3,57.9,29.95,SSE,167,0.0,1.0,92,0.00,,,0.00,0.0,meteohub,2013-12-04 05:18:00,
2013-12-04 00:23:00,60.1,57.7,29.94,SSE,167,0.0,0.0,92,0.00,,,0.00,0.0,meteohub,2013-12-04 05:23:00,
2013-12-04 00:28:00,59.7,57.4,29.95,SSE,167,0.0,0.0,92,0.00,,,0.00,0.0,meteohub,2013-12-04 05:28:00,
2013-12-04 00:33:00,59.7,57.7,29.95,SSE,167,0.0,0.0,93,0.00,,,0.00,0.0,meteohub,2013-12-04 05:33:00,
2013-12-04 00:38:00,59.5,57.6,29.95,SSE,167,0.0,0.0,93,0.00,,,0.00,0.0,meteohub,2013-12-04 05:38:00,
2013-12-04 00:43:00,59.2,57.2,29.95,SSE,167,0.0,0.0,93,0.00,,,0.00,0.0,meteohub,2013-12-04 05:43:00,
2013-12-04 00:48:00,59.0,57.0,29.95,SSE,167,0.0,0.0,93,0.00,,,0.00,0.0,meteohub,2013-12-04 05:48:00,
2013-12-04 00:53:00,59.0,57.0,29.94,SSE,167,0.0,0.0,93,0.00,,,0.00,0.0,meteohub,2013-12-04 05:53:00,
2013-12-04 00:58:00,58.6,56.7,29.94,SSE,167,0.0,0.0,93,0.00,,,0.00,0.0,meteohub,2013-12-04 05:58:00,
2013-12-04 01:03:00,58.3,56.3,29.95,SSE,167,0.0,0.0,93,0.00,,,0.00,0.0,meteohub,2013-12-04 06:03:00,
2013-12-04 01:08:00,58.1,56.3,29.94,SSE,167,0.0,0.0,94,0.00,,,0.00,0.0,meteohub,2013-12-04 06:08:00,
2013-12-04 01:13:00,57.7,55.9,29.94,SSE,167,0.0,0.0,94,0.00,,,0.00,0.0,meteohub,2013-12-04 06:13:00,
2013-12-04 01:18:00,57.7,55.9,29.95,SSE,167,0.0,0.0,94,0.00,,,0.00,0.0,meteohub,2013-12-04 06:18:00,
2013-12-04 01:23:00,57.6,55.8,29.95,SSE,167,0.0,0.0,94,0.00,,,0.00,0.0,meteohub,2013-12-04 06:23:00,
2013-12-04 01:28:00,57.7,56.3,29.95,SSE,167,0.0,0.0,95,0.00,,,0.00,0.0,meteohub,2013-12-04 06:28:00,
2013-12-04 01:33:00,57.6,56.1,29.95,SSE,167,0.0,0.0,95,0.00,,,0.00,0.0,meteohub,2013-12-04 06:33:00,
2013-12-04 01:38:00,57.6,56.1,29.95,SSE,167,0.0,0.0,95,0.00,,,0.00,0.0,meteohub,2013-12-04 06:38:00,
2013-12-04 01:43:00,57.6,56.1,29.95,SSE,167,0.0,0.0,95,0.00,,,0.00,0.0,meteohub,2013-12-04 06:43:00,
2013-12-04 01:48:00,57.6,56.1,29.95,SSE,167,0.0,0.0,95,0.00,,,0.00,0.0,meteohub,2013-12-04 06:48:00,
2013-12-04 01:53:00,57.6,56.1,29.95,SSE,167,0.0,0.0,95,0.00,,,0.00,0.0,meteohub,2013-12-04 06:53:00,
2013-12-04 01:58:00,57.4,55.9,29.95,SSE,167,0.0,0.0,95,0.00,,,0.00,0.0,meteohub,2013-12-04 06:58:00,
2013-12-04 02:03:00,57.2,55.8,29.95,SSE,167,0.0,0.0,95,0.00,,,0.00,0.0,meteohub,2013-12-04 07:03:00,
2013-12-04 02:08:00,57.0,55.6,29.95,SSE,167,0.0,0.0,95,0.00,,,0.00,0.0,meteohub,2013-12-04 07:08:00,
2013-12-04 02:13:00,56.8,55.4,29.95,SSE,167,0.0,0.0,95,0.00,,,0.00,0.0,meteohub,2013-12-04 07:13:00,
2013-12-04 02:18:00,56.7,55.2,29.95,SSE,167,0.0,0.0,95,0.00,,,0.00,0.0,meteohub,2013-12-04 07:18:00,
2013-12-04 02:23:00,56.7,55.6,29.95,SSE,167,0.0,0.0,96,0.00,,,0.00,0.0,meteohub,2013-12-04 07:23:00,
2013-12-04 02:28:00,56.7,55.6,29.95,SSE,167,0.0,0.0,96,0.00,,,0.00,0.0,meteohub,2013-12-04 07:28:00,
2013-12-04 02:33:00,56.5,55.0,29.95,SSE,167,0.0,0.0,95,0.00,,,0.00,0.0,meteohub,2013-12-04 07:33:00,
2013-12-04 02:38:00,56.1,55.0,29.96,SSE,167,0.0,0.0,96,0.00,,,0.00,0.0,meteohub,2013-12-04 07:38:00,
2013-12-04 02:43:00,56.1,55.0,29.96,SSE,167,0.0,0.0,96,0.00,,,0.00,0.0,meteohub,2013-12-04 07:43:00,
2013-12-04 02:48:00,55.9,54.9,29.96,SSE,167,0.0,0.0,96,0.00,,,0.00,0.0,meteohub,2013-12-04 07:48:00,
2013-12-04 02:53:00,55.8,54.7,29.96,SSE,167,0.0,0.0,96,0.00,,,0.00,0.0,meteohub,2013-12-04 07:53:00,
2013-12-04 02:58:00,55.8,54.7,29.96,SSE,167,0.0,0.0,96,0.00,,,0.00,0.0,meteohub,2013-12-04 07:58:00,
2013-12-04 03:03:00,55.8,54.7,29.96,SSE,167,0.0,0.0,96,0.00,,,0.00,0.0,meteohub,2013-12-04 08:03:00,
2013-12-04 03:08:00,55.6,54.5,29.96,SSE,167,0.0,0.0,96,0.00,,,0.00,0.0,meteohub,2013-12-04 08:08:00,
2013-12-04 03:13:00,55.6,54.5,29.96,SSE,167,0.0,0.0,96,0.00,,,0.00,0.0,meteohub,2013-12-04 08:13:00,
2013-12-04 03:18:00,55.4,54.3,29.96,SSE,167,0.0,0.0,96,0.00,,,0.00,0.0,meteohub,2013-12-04 08:18:00,
2013-12-04 03:23:00,55.2,54.1,29.96,SSE,167,0.0,0.0,96,0.00,,,0.00,0.0,meteohub,2013-12-04 08:23:00,
2013-12-04 03:28:00,55.0,54.0,29.96,SSE,167,0.0,0.0,96,0.00,,,0.00,0.0,meteohub,2013-12-04 08:28:00,
2013-12-04 03:33:00,55.0,54.0,29.96,SSE,167,0.0,0.0,96,0.00,,,0.00,0.0,meteohub,2013-12-04 08:33:00,
2013-12-04 03:38:00,55.0,54.0,29.96,SSE,167,0.0,0.0,96,0.00,,,0.00,0.0,meteohub,2013-12-04 08:38:00,
2013-12-04 03:44:00,55.0,54.0,29.96,SSE,167,0.0,0.0,96,0.00,,,0.00,0.0,meteohub,2013-12-04 08:44:00,
2013-12-04 03:49:00,55.0,54.0,29.96,SSE,167,0.0,0.0,96,0.00,,,0.00,0.0,meteohub,2013-12-04 08:49:00,
2013-12-04 03:54:00,54.9,53.8,29.96,SSE,167,0.0,0.0,96,0.00,,,0.00,0.0,meteohub,2013-12-04 08:54:00,
2013-12-04 03:59:00,54.9,53.8,29.96,SSE,167,0.0,0.0,96,0.00,,,0.00,0.0,meteohub,2013-12-04 08:59:00,
2013-12-04 04:04:00,54.7,53.6,29.96,SSE,167,0.0,0.0,96,0.00,,,0.00,0.0,meteohub,2013-12-04 09:04:00,
2013-12-04 04:09:00,54.3,53.2,29.96,SSE,167,0.0,0.0,96,0.00,,,0.00,0.0,meteohub,2013-12-04 09:09:00,
2013-12-04 04:14:00,54.3,53.2,29.96,SSE,167,0.0,0.0,96,0.00,,,0.00,0.0,meteohub,2013-12-04 09:14:00,
2013-12-04 04:19:00,54.3,53.2,29.96,SSE,167,0.0,0.0,96,0.00,,,0.00,0.0,meteohub,2013-12-04 09:19:00,
2013-12-04 04:24:00,54.7,53.6,29.96,SSE,167,0.0,0.0,96,0.00,,,0.00,0.0,meteohub,2013-12-04 09:24:00,
2013-12-04 04:29:00,54.7,53.6,29.96,SSE,167,0.0,0.0,96,0.00,,,0.00,0.0,meteohub,2013-12-04 09:29:00,
2013-12-04 04:34:00,54.7,53.6,29.96,SSE,167,0.0,0.0,96,0.00,,,0.00,0.0,meteohub,2013-12-04 09:34:00,
2013-12-04 04:39:00,54.5,53.6,29.96,SSE,167,0.0,0.0,97,0.00,,,0.00,0.0,meteohub,2013-12-04 09:39:00,
2013-12-04 04:44:00,54.3,53.4,29.96,SSE,167,0.0,0.0,97,0.00,,,0.00,0.0,meteohub,2013-12-04 09:44:00,
2013-12-04 04:49:00,54.1,53.2,29.96,SSE,167,0.0,0.0,97,0.00,,,0.00,0.0,meteohub,2013-12-04 09:49:00,
2013-12-04 04:54:00,54.1,53.1,29.96,SSE,167,0.0,0.0,96,0.00,,,0.00,0.0,meteohub,2013-12-04 09:54:00,
2013-12-04 04:59:00,54.0,52.9,29.96,SSE,167,0.0,0.0,96,0.00,,,0.00,0.0,meteohub,2013-12-04 09:59:00,
2013-12-04 05:04:00,54.0,53.1,29.96,SSE,167,0.0,0.0,97,0.00,,,0.00,0.0,meteohub,2013-12-04 10:04:00,
2013-12-04 05:09:00,53.8,52.9,29.97,SSE,167,0.0,0.0,97,0.00,,,0.00,0.0,meteohub,2013-12-04 10:09:00,
2013-12-04 05:14:00,53.8,52.9,29.97,SSE,167,0.0,0.0,97,0.00,,,0.00,0.0,meteohub,2013-12-04 10:14:00,
2013-12-04 05:19:00,53.6,52.5,29.97,SSE,167,0.0,0.0,96,0.00,,,0.00,0.0,meteohub,2013-12-04 10:19:00,
2013-12-04 05:24:00,53.8,52.9,29.97,SSE,167,0.0,0.0,97,0.00,,,0.00,0.0,meteohub,2013-12-04 10:24:00,
2013-12-04 05:29:00,53.8,52.9,29.97,SSE,167,0.0,0.0,97,0.00,,,0.00,0.0,meteohub,2013-12-04 10:29:00,
2013-12-04 05:34:00,53.8,52.9,29.97,SSE,167,0.0,0.0,97,0.00,,,0.00,0.0,meteohub,2013-12-04 10:34:00,
2013-12-04 05:39:00,54.1,53.2,29.97,SSE,167,0.0,0.0,97,0.00,,,0.00,0.0,meteohub,2013-12-04 10:39:00,
2013-12-04 05:44:00,54.5,53.6,29.97,SSE,167,0.0,0.0,97,0.00,,,0.00,0.0,meteohub,2013-12-04 10:44:00,
2013-12-04 05:49:00,54.5,53.6,29.97,SSE,167,0.0,0.0,97,0.00,,,0.00,0.0,meteohub,2013-12-04 10:49:00,
2013-12-04 05:54:00,54.1,53.2,29.98,SSE,167,0.0,0.0,97,0.00,,,0.00,0.0,meteohub,2013-12-04 10:54:00,
2013-12-04 05:59:00,54.0,53.1,29.98,SSE,167,0.0,0.0,97,0.00,,,0.00,0.0,meteohub,2013-12-04 10:59:00,
2013-12-04 06:04:00,54.0,53.1,29.98,SSE,167,0.0,0.0,97,0.00,,,0.00,0.0,meteohub,2013-12-04 11:04:00,
2013-12-04 06:09:00,54.0,53.1,29.98,SSE,167,0.0,0.0,97,0.00,,,0.00,0.0,meteohub,2013-12-04 11:09:00,
2013-12-04 06:14:00,54.0,53.1,29.98,SSE,167,0.0,0.0,97,0.00,,,0.00,0.0,meteohub,2013-12-04 11:14:00,
2013-12-04 06:19:00,54.0,53.1,29.99,SSE,167,0.0,0.0,97,0.00,,,0.00,0.0,meteohub,2013-12-04 11:19:00,
2013-12-04 06:24:00,54.0,53.1,29.99,SSE,167,0.0,0.0,97,0.00,,,0.00,0.0,meteohub,2013-12-04 11:24:00,
2013-12-04 06:29:00,54.0,53.1,29.99,SSE,167,0.0,0.0,97,0.00,,,0.00,0.0,meteohub,2013-12-04 11:29:00,
2013-12-04 06:34:00,53.8,52.9,29.99,SSE,167,0.0,0.0,97,0.00,,,0.00,0.0,meteohub,2013-12-04 11:34:00,
2013-12-04 06:39:00,53.8,52.9,29.99,SSE,167,0.0,0.0,97,0.00,,,0.00,0.0,meteohub,2013-12-04 11:39:00,
2013-12-04 06:44:00,53.8,52.9,29.99,SSE,167,0.0,0.0,97,0.00,,,0.00,0.0,meteohub,2013-12-04 11:44:00,
2013-12-04 06:49:00,53.8,52.9,29.99,SSE,167,0.0,0.0,97,0.00,,,0.00,0.0,meteohub,2013-12-04 11:49:00,
2013-12-04 06:54:00,53.6,52.7,29.99,SSE,167,0.0,0.0,97,0.00,,,0.00,0.0,meteohub,2013-12-04 11:54:00,
2013-12-04 06:59:00,54.0,53.1,29.99,SSE,167,0.0,0.0,97,0.00,,,0.00,0.0,meteohub,2013-12-04 11:59:00,
2013-12-04 07:04:00,54.0,53.1,29.99,SSE,167,0.0,0.0,97,0.00,,,0.00,0.0,meteohub,2013-12-04 12:04:00,
2013-12-04 07:09:00,53.8,52.9,29.99,SSE,167,0.0,0.0,97,0.00,,,0.00,0.0,meteohub,2013-12-04 12:09:00,
2013-12-04 07:14:00,53.8,52.9,29.99,SSE,167,0.0,0.0,97,0.00,,,0.00,5.0,meteohub,2013-12-04 12:14:00,
2013-12-04 07:19:00,53.6,52.7,29.99,SSE,167,0.0,0.0,97,0.00,,,0.00,9.0,meteohub,2013-12-04 12:19:00,
2013-12-04 07:24:00,53.6,52.7,30.00,SSE,167,0.0,0.0,97,0.00,,,0.00,11.0,meteohub,2013-12-04 12:24:00,
2013-12-04 07:29:00,53.4,52.5,30.00,SSE,167,0.0,0.0,97,0.00,,,0.00,14.0,meteohub,2013-12-04 12:29:00,
2013-12-04 07:34:00,53.4,52.5,30.00,SSE,167,0.0,0.0,97,0.00,,,0.00,16.0,meteohub,2013-12-04 12:34:00,
2013-12-04 07:39:00,53.4,52.5,30.00,SSE,167,0.0,0.0,97,0.00,,,0.00,19.0,meteohub,2013-12-04 12:39:00,
2013-12-04 07:44:00,53.6,52.7,30.00,SSE,167,0.0,0.0,97,0.00,,,0.00,23.0,meteohub,2013-12-04 12:44:00,
2013-12-04 07:49:00,53.8,52.9,30.00,SSE,167,0.0,0.0,97,0.00,,,0.00,28.0,meteohub,2013-12-04 12:49:00,
2013-12-04 07:54:00,53.8,52.9,30.01,SSE,167,0.0,0.0,97,0.00,,,0.00,39.0,meteohub,2013-12-04 12:54:00,
2013-12-04 07:59:00,54.1,53.2,30.01,SSE,167,0.0,0.0,97,0.00,,,0.00,46.0,meteohub,2013-12-04 12:59:00,
2013-12-04 08:04:00,54.5,53.6,30.01,SSE,167,0.0,0.0,97,0.00,,,0.00,70.0,meteohub,2013-12-04 13:04:00,
2013-12-04 08:09:00,54.9,54.0,30.01,SSE,167,0.0,0.0,97,0.00,,,0.00,113.0,meteohub,2013-12-04 13:09:00,
2013-12-04 08:15:00,55.8,55.2,30.01,SSE,167,0.0,0.0,98,0.00,,,0.00,134.0,meteohub,2013-12-04 13:15:00,
2013-12-04 08:20:00,56.7,56.1,30.01,South,187,0.0,0.0,98,0.00,,,0.00,144.0,meteohub,2013-12-04 13:20:00,
2013-12-04 08:25:00,57.4,56.8,30.02,East,86,0.0,0.0,98,0.00,,,0.00,174.0,meteohub,2013-12-04 13:25:00,
2013-12-04 08:30:00,58.3,57.7,30.02,East,86,0.0,0.0,98,0.00,,,0.00,193.0,meteohub,2013-12-04 13:30:00,
2013-12-04 08:35:00,59.4,58.8,30.02,East,86,0.0,0.0,98,0.00,,,0.00,176.0,meteohub,2013-12-04 13:35:00,
2013-12-04 08:39:00,60.3,59.7,30.02,East,87,0.0,0.0,98,0.00,,,0.00,227.0,meteohub,2013-12-04 13:39:00,
2013-12-04 08:44:00,61.0,60.4,30.02,SE,132,2.0,2.0,98,0.00,,,0.00,236.0,meteohub,2013-12-04 13:44:00,
2013-12-04 08:49:00,61.7,61.2,30.03,SE,132,0.0,2.0,98,0.00,,,0.00,250.0,meteohub,2013-12-04 13:49:00,
2013-12-04 08:54:00,62.4,61.9,30.03,SE,133,0.0,3.0,98,0.00,,,0.00,260.0,meteohub,2013-12-04 13:54:00,
2013-12-04 08:59:00,63.1,62.6,30.03,SE,134,0.0,3.0,98,0.00,,,0.00,223.0,meteohub,2013-12-04 13:59:00,
2013-12-04 09:04:00,63.7,63.1,30.03,SE,134,0.0,1.0,98,0.00,,,0.00,271.0,meteohub,2013-12-04 14:04:00,
2013-12-04 09:10:00,64.2,63.3,30.04,SE,135,0.0,2.0,97,0.00,,,0.00,251.0,meteohub,2013-12-04 14:10:00,
2013-12-04 09:15:00,64.9,64.0,30.04,SE,135,0.0,2.0,97,0.00,,,0.00,294.0,meteohub,2013-12-04 14:15:00,
2013-12-04 09:20:00,65.5,64.2,30.04,SW,217,0.0,2.0,96,0.00,,,0.00,297.0,meteohub,2013-12-04 14:20:00,
2013-12-04 09:25:00,65.8,64.4,30.04,South,173,0.0,4.0,95,0.00,,,0.00,346.0,meteohub,2013-12-04 14:25:00,
2013-12-04 09:30:00,66.4,64.2,30.04,South,173,0.0,4.0,93,0.00,,,0.00,302.0,meteohub,2013-12-04 14:30:00,
2013-12-04 09:35:00,67.3,64.9,30.04,SSE,148,0.0,4.0,92,0.00,,,0.00,366.0,meteohub,2013-12-04 14:35:00,
2013-12-04 09:40:00,67.6,64.6,30.04,SSE,148,1.0,3.0,90,0.00,,,0.00,376.0,meteohub,2013-12-04 14:40:00,
2013-12-04 09:45:00,68.0,64.6,30.05,SSW,193,0.0,3.0,89,0.00,,,0.00,297.0,meteohub,2013-12-04 14:45:00,
2013-12-04 09:50:00,68.4,64.4,30.05,SSW,194,1.0,4.0,87,0.00,,,0.00,336.0,meteohub,2013-12-04 14:50:00,
2013-12-04 09:55:00,68.7,64.8,30.05,NW,304,0.0,4.0,87,0.00,,,0.00,385.0,meteohub,2013-12-04 14:55:00,
2013-12-04 10:00:00,69.1,64.8,30.05,SSW,213,0.0,4.0,86,0.00,,,0.00,381.0,meteohub,2013-12-04 15:00:00,
2013-12-04 10:05:00,69.3,64.6,30.05,SSE,158,0.0,3.0,85,0.00,,,0.00,380.0,meteohub,2013-12-04 15:05:00,
2013-12-04 10:10:00,69.3,64.6,30.05,SSE,158,0.0,4.0,85,0.00,,,0.00,432.0,meteohub,2013-12-04 15:10:00,
2013-12-04 10:15:00,69.6,64.6,30.05,WNW,284,0.0,4.0,84,0.00,,,0.00,390.0,meteohub,2013-12-04 15:15:00,
2013-12-04 10:20:00,70.0,64.9,30.05,WNW,284,0.0,3.0,84,0.00,,,0.00,434.0,meteohub,2013-12-04 15:20:00,
2013-12-04 10:25:00,70.2,65.1,30.05,WNW,285,1.0,4.0,84,0.00,,,0.00,404.0,meteohub,2013-12-04 15:25:00,
2013-12-04 10:30:00,70.0,64.9,30.05,West,279,0.0,7.0,84,0.00,,,0.00,455.0,meteohub,2013-12-04 15:30:00,
2013-12-04 10:35:00,69.6,64.9,30.06,WSW,240,1.0,7.0,85,0.00,,,0.00,480.0,meteohub,2013-12-04 15:35:00,
2013-12-04 10:40:00,70.2,65.5,30.05,WSW,244,0.0,7.0,85,0.00,,,0.00,478.0,meteohub,2013-12-04 15:40:00,
2013-12-04 10:45:00,70.9,65.8,30.05,WSW,243,0.0,7.0,84,0.00,,,0.00,429.0,meteohub,2013-12-04 15:45:00,
2013-12-04 10:50:00,70.9,65.5,30.05,WNW,284,2.0,4.0,83,0.00,,,0.00,483.0,meteohub,2013-12-04 15:50:00,
2013-12-04 10:55:00,70.5,65.1,30.05,WNW,284,0.0,6.0,83,0.00,,,0.00,431.0,meteohub,2013-12-04 15:55:00,
2013-12-04 11:00:00,71.1,66.0,30.05,South,175,0.0,6.0,84,0.00,,,0.00,510.0,meteohub,2013-12-04 16:00:00,
2013-12-04 11:05:00,71.8,66.0,30.05,South,176,0.0,5.0,82,0.00,,,0.00,413.0,meteohub,2013-12-04 16:05:00,
2013-12-04 11:10:00,72.0,66.2,30.06,West,272,1.0,5.0,82,0.00,,,0.00,520.0,meteohub,2013-12-04 16:10:00,
2013-12-04 11:15:00,72.1,66.7,30.05,South,169,0.0,5.0,83,0.00,,,0.00,578.0,meteohub,2013-12-04 16:15:00,
2013-12-04 11:20:00,73.0,67.3,30.05,South,170,1.0,5.0,82,0.00,,,0.00,575.0,meteohub,2013-12-04 16:20:00,
2013-12-04 11:25:00,73.8,67.3,30.05,WNW,293,2.0,4.0,80,0.00,,,0.00,524.0,meteohub,2013-12-04 16:25:00,
2013-12-04 11:30:00,73.8,67.3,30.05,WNW,284,3.0,7.0,80,0.00,,,0.00,580.0,meteohub,2013-12-04 16:30:00,
2013-12-04 11:35:00,73.6,66.7,30.05,WNW,288,0.0,7.0,79,0.00,,,0.00,578.0,meteohub,2013-12-04 16:35:00,
2013-12-04 11:40:00,73.9,67.5,30.04,WNW,288,0.0,7.0,80,0.00,,,0.00,543.0,meteohub,2013-12-04 16:40:00,
2013-12-04 11:45:00,74.5,67.1,30.04,SW,225,0.0,5.0,78,0.00,,,0.00,554.0,meteohub,2013-12-04 16:45:00,
2013-12-04 11:50:00,74.8,66.7,30.04,WNW,288,1.0,4.0,76,0.00,,,0.00,559.0,meteohub,2013-12-04 16:50:00,
2013-12-04 11:55:00,75.0,67.3,30.04,North,349,0.0,4.0,77,0.00,,,0.00,589.0,meteohub,2013-12-04 16:55:00,
2013-12-04 12:00:00,75.4,67.3,30.04,SW,232,0.0,5.0,76,0.00,,,0.00,571.0,meteohub,2013-12-04 17:00:00,
2013-12-04 12:05:00,75.0,66.6,30.03,WNW,289,0.0,6.0,75,0.00,,,0.00,538.0,meteohub,2013-12-04 17:05:00,
2013-12-04 12:10:00,74.8,66.7,30.03,SW,226,2.0,6.0,76,0.00,,,0.00,582.0,meteohub,2013-12-04 17:10:00,
2013-12-04 12:15:00,75.0,66.6,30.03,SW,218,0.0,5.0,75,0.00,,,0.00,585.0,meteohub,2013-12-04 17:15:00,
2013-12-04 12:20:00,75.4,67.3,30.03,West,273,2.0,5.0,76,0.00,,,0.00,545.0,meteohub,2013-12-04 17:20:00,
2013-12-04 12:25:00,75.7,66.9,30.03,WSW,256,2.0,5.0,74,0.00,,,0.00,601.0,meteohub,2013-12-04 17:25:00,
2013-12-04 12:30:00,75.7,66.9,30.03,WNW,300,3.0,5.0,74,0.00,,,0.00,636.0,meteohub,2013-12-04 17:30:00,
2013-12-04 12:35:00,75.6,67.1,30.02,NW,315,4.0,5.0,75,0.00,,,0.00,123.0,meteohub,2013-12-04 17:35:00,
2013-12-04 12:40:00,75.4,66.6,30.01,SW,228,4.0,5.0,74,0.00,,,0.00,547.0,meteohub,2013-12-04 17:40:00,
2013-12-04 12:45:00,75.7,66.9,30.01,SSE,147,0.0,5.0,74,0.00,,,0.00,601.0,meteohub,2013-12-04 17:45:00,
2013-12-04 12:50:00,76.5,68.0,30.01,SSE,165,0.0,4.0,75,0.00,,,0.00,612.0,meteohub,2013-12-04 17:50:00,
2013-12-04 12:55:00,76.8,66.7,30.00,SW,221,1.0,4.0,71,0.00,,,0.00,606.0,meteohub,2013-12-04 17:55:00,
2013-12-04 13:00:00,77.0,66.9,30.00,West,271,0.0,4.0,71,0.00,,,0.00,603.0,meteohub,2013-12-04 18:00:00,
2013-12-04 13:05:00,76.3,66.2,30.00,WNW,290,0.0,5.0,71,0.00,,,0.00,113.0,meteohub,2013-12-04 18:05:00,
2013-12-04 13:10:00,75.9,65.5,30.00,South,191,0.0,5.0,70,0.00,,,0.00,654.0,meteohub,2013-12-04 18:10:00,
2013-12-04 13:15:00,76.3,65.8,30.00,SSE,147,2.0,5.0,70,0.00,,,0.00,225.0,meteohub,2013-12-04 18:15:00,
2013-12-04 13:20:00,76.3,65.8,29.99,West,271,1.0,4.0,70,0.00,,,0.00,613.0,meteohub,2013-12-04 18:20:00,
2013-12-04 13:25:00,76.3,65.3,29.99,WNW,289,0.0,4.0,69,0.00,,,0.00,258.0,meteohub,2013-12-04 18:25:00,
2013-12-04 13:30:00,76.5,66.0,29.99,WNW,289,0.0,4.0,70,0.00,,,0.00,621.0,meteohub,2013-12-04 18:30:00,
2013-12-04 13:35:00,76.8,66.2,29.99,SSW,207,0.0,8.0,70,0.00,,,0.00,573.0,meteohub,2013-12-04 18:35:00,
2013-12-04 13:40:00,77.2,65.8,29.99,WNW,286,0.0,9.0,68,0.00,,,0.00,127.0,meteohub,2013-12-04 18:40:00,
2013-12-04 13:45:00,77.2,65.8,29.99,SSE,163,0.0,9.0,68,0.00,,,0.00,538.0,meteohub,2013-12-04 18:45:00,
2013-12-04 13:50:00,77.0,65.1,29.99,SSE,163,0.0,9.0,67,0.00,,,0.00,158.0,meteohub,2013-12-04 18:50:00,
2013-12-04 13:55:00,77.2,65.8,29.99,SSW,207,1.0,2.0,68,0.00,,,0.00,533.0,meteohub,2013-12-04 18:55:00,
2013-12-04 14:00:00,77.4,65.5,29.99,WSW,257,0.0,5.0,67,0.00,,,0.00,478.0,meteohub,2013-12-04 19:00:00,
2013-12-04 14:05:00,77.2,65.8,29.99,NW,311,0.0,5.0,68,0.00,,,0.00,464.0,meteohub,2013-12-04 19:05:00,
2013-12-04 14:10:00,77.4,66.0,29.99,SSE,149,0.0,6.0,68,0.00,,,0.00,485.0,meteohub,2013-12-04 19:10:00,
2013-12-04 14:15:00,77.7,66.4,29.99,WNW,284,2.0,6.0,68,0.00,,,0.00,457.0,meteohub,2013-12-04 19:15:00,
2013-12-04 14:20:00,77.5,65.3,29.99,WNW,290,0.0,7.0,66,0.00,,,0.00,137.0,meteohub,2013-12-04 19:20:00,
2013-12-04 14:25:00,76.8,64.9,29.99,WNW,289,0.0,7.0,67,0.00,,,0.00,102.0,meteohub,2013-12-04 19:25:00,
2013-12-04 14:30:00,76.3,65.3,29.99,WNW,288,0.0,7.0,69,0.00,,,0.00,125.0,meteohub,2013-12-04 19:30:00,
2013-12-04 14:35:00,75.9,64.9,29.99,WNW,289,0.0,4.0,69,0.00,,,0.00,125.0,meteohub,2013-12-04 19:35:00,
2013-12-04 14:40:00,75.7,64.8,29.98,WNW,289,0.0,4.0,69,0.00,,,0.00,111.0,meteohub,2013-12-04 19:40:00,
2013-12-04 14:45:00,75.7,65.3,29.98,WNW,289,0.0,3.0,70,0.00,,,0.00,350.0,meteohub,2013-12-04 19:45:00,
2013-12-04 14:50:00,75.9,64.6,29.99,WNW,289,0.0,1.0,68,0.00,,,0.00,176.0,meteohub,2013-12-04 19:50:00,
2013-12-04 14:55:00,76.1,65.7,29.98,WNW,288,0.0,1.0,70,0.00,,,0.00,149.0,meteohub,2013-12-04 19:55:00,
2013-12-04 15:00:00,76.3,65.3,29.98,South,184,2.0,2.0,69,0.00,,,0.00,93.0,meteohub,2013-12-04 20:00:00,
2013-12-04 15:05:00,76.6,65.3,29.98,South,184,0.0,5.0,68,0.00,,,0.00,264.0,meteohub,2013-12-04 20:05:00,
2013-12-04 15:10:00,77.0,65.1,29.98,South,183,1.0,5.0,67,0.00,,,0.00,294.0,meteohub,2013-12-04 20:10:00,
2013-12-04 15:15:00,77.2,64.9,29.99,SW,236,4.0,5.0,66,0.00,,,0.00,93.0,meteohub,2013-12-04 20:15:00,
2013-12-04 15:20:00,77.0,64.4,29.98,WSW,249,0.0,4.0,65,0.00,,,0.00,118.0,meteohub,2013-12-04 20:20:00,
2013-12-04 15:25:00,77.2,64.9,29.98,WSW,249,0.0,4.0,66,0.00,,,0.00,162.0,meteohub,2013-12-04 20:25:00,
2013-12-04 15:30:00,77.4,65.5,29.98,SE,129,0.0,4.0,67,0.00,,,0.00,148.0,meteohub,2013-12-04 20:30:00,
2013-12-04 15:35:00,76.8,66.7,29.98,South,183,1.0,5.0,71,0.00,,,0.00,134.0,meteohub,2013-12-04 20:35:00,
2013-12-04 15:40:00,76.3,66.6,29.98,SE,134,3.0,5.0,72,0.00,,,0.00,162.0,meteohub,2013-12-04 20:40:00,
2013-12-04 15:45:00,75.7,66.4,29.99,South,180,2.0,6.0,73,0.00,,,0.00,195.0,meteohub,2013-12-04 20:45:00,
2013-12-04 15:50:00,75.6,67.1,29.99,SE,142,1.0,6.0,75,0.00,,,0.00,84.0,meteohub,2013-12-04 20:50:00,
2013-12-04 15:55:00,75.2,66.7,29.99,SSE,148,0.0,6.0,75,0.00,,,0.00,60.0,meteohub,2013-12-04 20:55:00,
2013-12-04 16:01:00,74.8,66.4,29.99,SE,134,1.0,5.0,75,0.00,,,0.00,72.0,meteohub,2013-12-04 21:01:00,
2013-12-04 16:06:00,74.1,66.0,29.99,SSE,152,0.0,4.0,76,0.00,,,0.00,76.0,meteohub,2013-12-04 21:06:00,
2013-12-04 16:11:00,73.8,65.7,29.99,NNE,18,0.0,4.0,76,0.00,,,0.00,62.0,meteohub,2013-12-04 21:11:00,
2013-12-04 16:16:00,73.6,65.8,29.99,SE,128,0.0,5.0,77,0.00,,,0.00,88.0,meteohub,2013-12-04 21:16:00,
2013-12-04 16:21:00,73.0,65.8,29.99,SSE,159,1.0,5.0,78,0.00,,,0.00,54.0,meteohub,2013-12-04 21:21:00,
2013-12-04 16:26:00,72.9,66.0,29.99,SE,132,0.0,5.0,79,0.00,,,0.00,46.0,meteohub,2013-12-04 21:26:00,
2013-12-04 16:31:00,72.7,65.8,29.99,SE,134,0.0,5.0,79,0.00,,,0.00,39.0,meteohub,2013-12-04 21:31:00,
2013-12-04 16:36:00,72.3,65.8,29.99,SE,133,0.0,4.0,80,0.00,,,0.00,35.0,meteohub,2013-12-04 21:36:00,
2013-12-04 16:41:00,72.1,66.0,29.99,SE,134,0.0,4.0,81,0.00,,,0.00,30.0,meteohub,2013-12-04 21:41:00,
2013-12-04 16:46:00,72.0,66.2,29.99,SE,134,0.0,2.0,82,0.00,,,0.00,26.0,meteohub,2013-12-04 21:46:00,
2013-12-04 16:51:00,71.8,66.0,30.00,SE,133,0.0,1.0,82,0.00,,,0.00,23.0,meteohub,2013-12-04 21:51:00,
2013-12-04 16:56:00,71.4,66.0,30.00,SE,133,0.0,1.0,83,0.00,,,0.00,18.0,meteohub,2013-12-04 21:56:00,
2013-12-04 17:01:00,71.1,66.0,30.00,SE,134,0.0,1.0,84,0.00,,,0.00,16.0,meteohub,2013-12-04 22:01:00,
2013-12-04 17:06:00,70.7,65.7,30.00,SE,134,0.0,1.0,84,0.00,,,0.00,14.0,meteohub,2013-12-04 22:06:00,
2013-12-04 17:11:00,70.3,65.7,30.00,SE,134,0.0,1.0,85,0.00,,,0.00,9.0,meteohub,2013-12-04 22:11:00,
2013-12-04 17:16:00,70.0,65.3,30.01,SE,134,0.0,1.0,85,0.00,,,0.00,5.0,meteohub,2013-12-04 22:16:00,
2013-12-04 17:21:00,69.4,65.1,30.01,SE,134,0.0,0.0,86,0.00,,,0.00,0.0,meteohub,2013-12-04 22:21:00,
2013-12-04 17:26:00,69.1,64.8,30.01,SE,134,0.0,0.0,86,0.00,,,0.00,0.0,meteohub,2013-12-04 22:26:00,
2013-12-04 17:31:00,68.5,64.2,30.01,SE,133,0.0,0.0,86,0.00,,,0.00,0.0,meteohub,2013-12-04 22:31:00,
2013-12-04 17:36:00,68.2,64.2,30.01,SE,134,0.0,1.0,87,0.00,,,0.00,0.0,meteohub,2013-12-04 22:36:00,
2013-12-04 17:41:00,67.6,63.7,30.01,SE,134,0.0,1.0,87,0.00,,,0.00,0.0,meteohub,2013-12-04 22:41:00,
2013-12-04 17:46:00,67.5,63.9,30.01,SE,134,0.0,1.0,88,0.00,,,0.00,0.0,meteohub,2013-12-04 22:46:00,
2013-12-04 17:51:00,67.1,63.5,30.01,SE,134,1.0,1.0,88,0.00,,,0.00,0.0,meteohub,2013-12-04 22:51:00,
2013-12-04 17:56:00,66.7,63.3,30.01,SE,133,0.0,2.0,89,0.00,,,0.00,0.0,meteohub,2013-12-04 22:56:00,
2013-12-04 18:01:00,66.6,63.1,30.01,SE,133,0.0,2.0,89,0.00,,,0.00,0.0,meteohub,2013-12-04 23:01:00,
2013-12-04 18:06:00,66.4,63.0,30.01,SE,134,0.0,2.0,89,0.00,,,0.00,0.0,meteohub,2013-12-04 23:06:00,
2013-12-04 18:11:00,66.0,63.0,30.01,SE,134,0.0,2.0,90,0.00,,,0.00,0.0,meteohub,2013-12-04 23:11:00,
2013-12-04 18:16:00,65.7,62.6,30.01,SE,134,0.0,0.0,90,0.00,,,0.00,0.0,meteohub,2013-12-04 23:16:00,
2013-12-04 18:20:00,65.3,62.2,30.01,SE,133,0.0,1.0,90,0.00,,,0.00,0.0,meteohub,2013-12-04 23:20:00,
2013-12-04 18:26:00,65.1,62.4,30.01,SE,134,0.0,1.0,91,0.00,,,0.00,0.0,meteohub,2013-12-04 23:26:00,
2013-12-04 18:31:00,64.9,62.2,30.02,SE,134,0.0,1.0,91,0.00,,,0.00,0.0,meteohub,2013-12-04 23:31:00,
2013-12-04 18:36:00,64.8,62.1,30.02,SE,133,0.0,1.0,91,0.00,,,0.00,0.0,meteohub,2013-12-04 23:36:00,
2013-12-04 18:41:00,64.6,62.2,30.02,SE,133,0.0,2.0,92,0.00,,,0.00,0.0,meteohub,2013-12-04 23:41:00,
2013-12-04 18:46:00,64.2,61.9,30.03,SE,134,0.0,2.0,92,0.00,,,0.00,0.0,meteohub,2013-12-04 23:46:00,
2013-12-04 18:51:00,64.0,61.7,30.03,SE,133,0.0,2.0,92,0.00,,,0.00,0.0,meteohub,2013-12-04 23:51:00,
2013-12-04 18:56:00,63.9,61.5,30.03,SE,134,0.0,0.0,92,0.00,,,0.00,0.0,meteohub,2013-12-04 23:56:00,
2013-12-04 19:01:00,63.5,61.2,30.03,SE,134,0.0,0.0,92,0.00,,,0.00,0.0,meteohub,2013-12-05 00:01:00,
2013-12-04 19:06:00,63.1,60.8,30.03,SE,133,0.0,0.0,92,0.00,,,0.00,0.0,meteohub,2013-12-05 00:06:00,
2013-12-04 19:11:00,62.8,60.8,30.03,SE,134,0.0,1.0,93,0.00,,,0.00,0.0,meteohub,2013-12-05 00:11:00,
2013-12-04 19:16:00,62.4,60.4,30.03,SE,134,0.0,1.0,93,0.00,,,0.00,0.0,meteohub,2013-12-05 00:16:00,
2013-12-04 19:21:00,62.2,60.3,30.03,SE,134,0.0,1.0,93,0.00,,,0.00,0.0,meteohub,2013-12-05 00:21:00,
2013-12-04 19:26:00,62.1,60.3,30.03,SE,133,0.0,0.0,94,0.00,,,0.00,0.0,meteohub,2013-12-05 00:26:00,
2013-12-04 19:31:00,62.2,60.4,30.03,SE,134,0.0,1.0,94,0.00,,,0.00,0.0,meteohub,2013-12-05 00:31:00,
2013-12-04 19:36:00,62.2,60.4,30.03,SE,134,0.0,1.0,94,0.00,,,0.00,0.0,meteohub,2013-12-05 00:36:00,
2013-12-04 19:41:00,62.2,60.8,30.03,SE,134,0.0,1.0,95,0.00,,,0.00,0.0,meteohub,2013-12-05 00:41:00,
2013-12-04 19:46:00,62.2,60.8,30.03,SE,134,0.0,1.0,95,0.00,,,0.00,0.0,meteohub,2013-12-05 00:46:00,
2013-12-04 19:51:00,62.2,60.8,30.03,SE,133,0.0,2.0,95,0.00,,,0.00,0.0,meteohub,2013-12-05 00:51:00,
2013-12-04 19:56:00,62.2,60.8,30.04,SE,134,0.0,2.0,95,0.00,,,0.00,0.0,meteohub,2013-12-05 00:56:00,
2013-12-04 20:01:00,62.2,60.8,30.04,SE,133,0.0,2.0,95,0.00,,,0.00,0.0,meteohub,2013-12-05 01:01:00,
2013-12-04 20:06:00,62.1,60.6,30.04,SE,134,0.0,1.0,95,0.00,,,0.00,0.0,meteohub,2013-12-05 01:06:00,
2013-12-04 20:11:00,61.9,60.1,30.04,SE,134,0.0,1.0,94,0.00,,,0.00,0.0,meteohub,2013-12-05 01:11:00,
2013-12-04 20:16:00,61.5,60.1,30.04,SE,134,0.0,0.0,95,0.00,,,0.00,0.0,meteohub,2013-12-05 01:16:00,
2013-12-04 20:21:00,61.3,59.5,30.04,SE,134,0.0,0.0,94,0.00,,,0.00,0.0,meteohub,2013-12-05 01:21:00,
2013-12-04 20:26:00,61.2,59.7,30.05,SE,134,0.0,0.0,95,0.00,,,0.00,0.0,meteohub,2013-12-05 01:26:00,
2013-12-04 20:31:00,61.0,59.5,30.04,SE,134,0.0,1.0,95,0.00,,,0.00,0.0,meteohub,2013-12-05 01:31:00,
2013-12-04 20:36:00,60.8,59.4,30.04,SE,133,0.0,1.0,95,0.00,,,0.00,0.0,meteohub,2013-12-05 01:36:00,
2013-12-04 20:41:00,60.6,59.2,30.04,SE,133,0.0,1.0,95,0.00,,,0.00,0.0,meteohub,2013-12-05 01:41:00,
2013-12-04 20:46:00,60.6,59.2,30.05,SE,134,0.0,0.0,95,0.00,,,0.00,0.0,meteohub,2013-12-05 01:46:00,
2013-12-04 20:51:00,60.6,59.2,30.05,SE,133,0.0,0.0,95,0.00,,,0.00,0.0,meteohub,2013-12-05 01:51:00,
2013-12-04 20:56:00,60.6,59.2,30.05,SE,134,0.0,0.0,95,0.00,,,0.00,0.0,meteohub,2013-12-05 01:56:00,
2013-12-04 21:01:00,60.4,59.0,30.05,SE,133,0.0,0.0,95,0.00,,,0.00,0.0,meteohub,2013-12-05 02:01:00,
2013-12-04 21:06:00,60.3,58.8,30.05,SE,133,0.0,0.0,95,0.00,,,0.00,0.0,meteohub,2013-12-05 02:06:00,
2013-12-04 21:11:00,60.1,58.6,30.06,SE,134,0.0,0.0,95,0.00,,,0.00,0.0,meteohub,2013-12-05 02:11:00,
2013-12-04 21:16:00,59.7,58.6,30.05,SE,134,0.0,0.0,96,0.00,,,0.00,0.0,meteohub,2013-12-05 02:16:00,
2013-12-04 21:21:00,59.5,58.1,30.05,SE,134,0.0,0.0,95,0.00,,,0.00,0.0,meteohub,2013-12-05 02:21:00,
2013-12-04 21:26:00,59.5,58.5,30.06,SE,134,0.0,0.0,96,0.00,,,0.00,0.0,meteohub,2013-12-05 02:26:00,
2013-12-04 21:31:00,59.2,58.1,30.05,SE,134,0.0,0.0,96,0.00,,,0.00,0.0,meteohub,2013-12-05 02:31:00,
2013-12-04 21:36:00,59.0,57.9,30.06,SE,133,0.0,0.0,96,0.00,,,0.00,0.0,meteohub,2013-12-05 02:36:00,
2013-12-04 21:41:00,59.0,57.9,30.06,SE,133,0.0,0.0,96,0.00,,,0.00,0.0,meteohub,2013-12-05 02:41:00,
2013-12-04 21:46:00,59.0,57.9,30.06,SE,134,0.0,0.0,96,0.00,,,0.00,0.0,meteohub,2013-12-05 02:46:00,
2013-12-04 21:51:00,58.8,57.7,30.07,SE,133,0.0,0.0,96,0.00,,,0.00,0.0,meteohub,2013-12-05 02:51:00,
2013-12-04 21:56:00,58.8,57.7,30.07,SE,134,0.0,0.0,96,0.00,,,0.00,0.0,meteohub,2013-12-05 02:56:00,
2013-12-04 22:01:00,58.6,57.6,30.07,SE,134,0.0,0.0,96,0.00,,,0.00,0.0,meteohub,2013-12-05 03:01:00,
2013-12-04 22:06:00,58.6,57.6,30.07,SE,133,0.0,0.0,96,0.00,,,0.00,0.0,meteohub,2013-12-05 03:06:00,
2013-12-04 22:11:00,58.6,57.6,30.07,SE,134,0.0,0.0,96,0.00,,,0.00,0.0,meteohub,2013-12-05 03:11:00,
2013-12-04 22:16:00,58.6,57.6,30.07,SE,134,0.0,0.0,96,0.00,,,0.00,0.0,meteohub,2013-12-05 03:16:00,
2013-12-04 22:21:00,58.6,57.6,30.07,SE,134,0.0,0.0,96,0.00,,,0.00,0.0,meteohub,2013-12-05 03:21:00,
2013-12-04 22:26:00,58.5,57.4,30.07,SE,133,0.0,0.0,96,0.00,,,0.00,0.0,meteohub,2013-12-05 03:26:00,
2013-12-04 22:31:00,58.5,57.4,30.08,SE,134,0.0,0.0,96,0.00,,,0.00,0.0,meteohub,2013-12-05 03:31:00,
2013-12-04 22:36:00,58.5,57.4,30.08,SE,133,0.0,0.0,96,0.00,,,0.00,0.0,meteohub,2013-12-05 03:36:00,
2013-12-04 22:41:00,58.5,57.4,30.08,SE,134,0.0,0.0,96,0.00,,,0.00,0.0,meteohub,2013-12-05 03:41:00,
2013-12-04 22:46:00,58.6,57.6,30.08,SE,134,0.0,0.0,96,0.00,,,0.00,0.0,meteohub,2013-12-05 03:46:00,
2013-12-04 22:51:00,59.0,57.9,30.09,SE,134,0.0,0.0,96,0.00,,,0.00,0.0,meteohub,2013-12-05 03:51:00,
2013-12-04 22:56:00,58.8,57.9,30.09,SE,134,0.0,0.0,97,0.00,,,0.00,0.0,meteohub,2013-12-05 03:56:00,
2013-12-04 23:01:00,58.6,57.7,30.09,SE,134,0.0,0.0,97,0.00,,,0.00,0.0,meteohub,2013-12-05 04:01:00,
2013-12-04 23:06:00,59.0,58.1,30.09,SE,133,0.0,0.0,97,0.00,,,0.00,0.0,meteohub,2013-12-05 04:06:00,
2013-12-04 23:11:00,59.7,58.8,30.09,SE,134,0.0,0.0,97,0.00,,,0.00,0.0,meteohub,2013-12-05 04:11:00,
2013-12-04 23:17:00,59.7,58.8,30.08,SE,133,0.0,0.0,97,0.00,,,0.00,0.0,meteohub,2013-12-05 04:17:00,
2013-12-04 23:22:00,59.7,58.8,30.08,SE,134,0.0,0.0,97,0.00,,,0.00,0.0,meteohub,2013-12-05 04:22:00,
2013-12-04 23:27:00,59.7,58.8,30.08,SE,134,0.0,0.0,97,0.00,,,0.00,0.0,meteohub,2013-12-05 04:27:00,
2013-12-04 23:32:00,59.7,58.8,30.08,SE,134,0.0,0.0,97,0.00,,,0.00,0.0,meteohub,2013-12-05 04:32:00,
2013-12-04 23:37:00,59.7,58.8,30.08,SE,134,0.0,1.0,97,0.00,,,0.00,0.0,meteohub,2013-12-05 04:37:00,
2013-12-04 23:41:00,60.3,59.4,30.07,SE,133,0.0,1.0,97,0.00,,,0.00,0.0,meteohub,2013-12-05 04:41:00,
2013-12-04 23:47:00,60.4,59.5,30.07,SE,134,1.0,1.0,97,0.00,,,0.00,0.0,meteohub,2013-12-05 04:47:00,
2013-12-04 23:52:00,60.6,59.7,30.08,SE,133,0.0,1.0,97,0.00,,,0.00,0.0,meteohub,2013-12-05 04:52:00,
2013-12-04 23:57:00,61.2,60.3,30.08,SE,134,0.0,2.0,97,0.00,,,0.00,0.0,meteohub,2013-12-05 04:57:00,